Previsão horária em Abasnurskiy

Hoje, 30 Setembro, Quarta-feira

Tempo Temperatura Precipitação Vento Pressão Humidade
00:00 +9°C° 0 mm 2 m/s 761 mmHg 74%
01:00 +9°C° 0 mm 2 m/s 761 mmHg 74%
02:00 +9°C° 0 mm 2 m/s 762 mmHg 74%
03:00 +9°C° 0 mm 2 m/s 762 mmHg 75%
04:00 +9°C° 0 mm 2 m/s 762 mmHg 76%
05:00 +8°C° 0 mm 2 m/s 761 mmHg 76%
06:00 +8°C° 0 mm 2 m/s 761 mmHg 77%
07:00 +10°C° 0 mm 2 m/s 761 mmHg 74%
08:00 +12°C° 0 mm 2 m/s 761 mmHg 72%
09:00 +13°C° 0 mm 2 m/s 762 mmHg 68%
10:00 +15°C° 0 mm 2 m/s 762 mmHg 66%
11:00 +16°C° 0 mm 2 m/s 762 mmHg 63%
12:00 +17°C° 0 mm 2 m/s 761 mmHg 60%
13:00 +17°C° 0 mm 2 m/s 761 mmHg 62%
14:00 +17°C° 0 mm 2 m/s 761 mmHg 63%
15:00 +17°C° 0 mm 2 m/s 761 mmHg 65%
16:00 +16°C° 0 mm 2 m/s 761 mmHg 72%
17:00 +14°C° 0 mm 2 m/s 761 mmHg 79%
18:00 +13°C° 0 mm 2 m/s 761 mmHg 86%
19:00 +12°C° 0 mm 2 m/s 761 mmHg 88%
20:00 +12°C° 0 mm 2 m/s 761 mmHg 89%
21:00 +10°C° 0 mm 2 m/s 761 mmHg 91%
22:00 +10°C° 0 mm 2 m/s 761 mmHg 91%
23:00 +10°C° 0 mm 2 m/s 761 mmHg 91%

Amanhã, 1 Outubro, Quinta-feira

Tempo Temperatura Precipitação Vento Pressão Humidade
00:00 +9°C° 0 mm 2 m/s 761 mmHg 91%
01:00 +9°C° 0 mm 2 m/s 761 mmHg 91%
02:00 +10°C° 0 mm 1 m/s 761 mmHg 91%
03:00 +10°C° 0 mm 1 m/s 761 mmHg 91%
04:00 +10°C° 0 mm 1 m/s 761 mmHg 92%
05:00 +10°C° 0 mm 1 m/s 761 mmHg 92%
06:00 +9°C° 0 mm 2 m/s 761 mmHg 93%
07:00 +10°C° 0 mm 2 m/s 761 mmHg 88%
08:00 +13°C° 0 mm 2 m/s 761 mmHg 83%
09:00 +14°C° 0 mm 2 m/s 761 mmHg 78%
10:00 +15°C° 0 mm 2 m/s 761 mmHg 73%
11:00 +16°C° 0 mm 2 m/s 761 mmHg 68%
12:00 +17°C° 0 mm 2 m/s 761 mmHg 63%
13:00 +18°C° 0 mm 1 m/s 761 mmHg 63%
14:00 +18°C° 0 mm 1 m/s 760 mmHg 62%
15:00 +18°C° 0 mm 1 m/s 760 mmHg 61%
16:00 +16°C° 0 mm 1 m/s 760 mmHg 67%
17:00 +14°C° 0 mm 1 m/s 760 mmHg 73%
18:00 +13°C° 0 mm 1 m/s 760 mmHg 79%
19:00 +12°C° 0 mm 1 m/s 760 mmHg 81%
20:00 +12°C° 0 mm 1 m/s 760 mmHg 83%
21:00 +11°C° 0 mm 1 m/s 760 mmHg 84%
22:00 +11°C° 0 mm 1 m/s 760 mmHg 85%
23:00 +11°C° 0 mm 1 m/s 760 mmHg 85%

Depois de amanhã, 2 Outubro, Sexta-feira

Tempo Temperatura Precipitação Vento Pressão Humidade
00:00 +10°C° 0 mm 1 m/s 760 mmHg 85%
01:00 +9°C° 0 mm 0 m/s 760 mmHg 85%
02:00 +9°C° 0 mm 0 m/s 760 mmHg 86%
03:00 +9°C° 0 mm 0 m/s 760 mmHg 86%
04:00 +9°C° 0 mm 0 m/s 760 mmHg 86%
05:00 +8°C° 0 mm 0 m/s 760 mmHg 87%
06:00 +8°C° 0 mm 0 m/s 760 mmHg 87%
07:00 +10°C° 0 mm 0 m/s 760 mmHg 82%
08:00 +11°C° 0 mm 0 m/s 760 mmHg 76%
09:00 +13°C° 0 mm 0 m/s 761 mmHg 70%
10:00 +14°C° 0 mm 0 m/s 760 mmHg 65%
11:00 +15°C° 0 mm 0 m/s 760 mmHg 61%
12:00 +16°C° 0 mm 0 m/s 760 mmHg 57%
13:00 +16°C° 0 mm 0 m/s 760 mmHg 56%
14:00 +16°C° 0 mm 0 m/s 760 mmHg 56%
15:00 +16°C° 0 mm 0 m/s 760 mmHg 56%
16:00 +14°C° 0 mm 0 m/s 760 mmHg 62%
17:00 +13°C° 0 mm 0 m/s 760 mmHg 69%
18:00 +11°C° 0 mm 0 m/s 760 mmHg 76%
19:00 +11°C° 0 mm 0 m/s 760 mmHg 78%
20:00 +10°C° 0 mm 0 m/s 760 mmHg 79%
21:00 +10°C° 0 mm 0 m/s 760 mmHg 81%
22:00 +9°C° 0 mm 0 m/s 760 mmHg 83%
23:00 +9°C° 0 mm 0 m/s 760 mmHg 84%

3 Outubro, Sábado

Tempo Temperatura Precipitação Vento Pressão Humidade
00:00 +9°C° 0 mm 0 m/s 760 mmHg 85%
01:00 +8°C° 0 mm 0 m/s 760 mmHg 86%
02:00 +8°C° 0 mm 0 m/s 760 mmHg 86%
03:00 +8°C° 0 mm 0 m/s 760 mmHg 87%
04:00 +8°C° 0 mm 1 m/s 760 mmHg 87%
05:00 +8°C° 0 mm 1 m/s 760 mmHg 88%
06:00 +8°C° 0 mm 1 m/s 760 mmHg 89%
07:00 +10°C° 0 mm 1 m/s 760 mmHg 83%
08:00 +11°C° 0 mm 1 m/s 760 mmHg 77%
09:00 +13°C° 0 mm 1 m/s 760 mmHg 72%
10:00 +14°C° 0 mm 1 m/s 760 mmHg 66%
11:00 +15°C° 0 mm 1 m/s 760 mmHg 61%
12:00 +18°C° 0 mm 1 m/s 760 mmHg 56%
13:00 +18°C° 0 mm 1 m/s 760 mmHg 56%
14:00 +18°C° 0 mm 1 m/s 760 mmHg 56%
15:00 +17°C° 0 mm 2 m/s 760 mmHg 56%
16:00 +15°C° 0 mm 1 m/s 760 mmHg 64%
17:00 +13°C° 0 mm 1 m/s 760 mmHg 71%
18:00 +11°C° 0 mm 1 m/s 760 mmHg 78%
19:00 +10°C° 0 mm 2 m/s 760 mmHg 82%
20:00 +9°C° 0 mm 2 m/s 760 mmHg 86%
21:00 +9°C° 0 mm 2 m/s 761 mmHg 89%
22:00 +8°C° 0 mm 2 m/s 761 mmHg 90%
23:00 +8°C° 0 mm 2 m/s 761 mmHg 91%

4 Outubro, Domingo

Tempo Temperatura Precipitação Vento Pressão Humidade
00:00 +8°C° 0 mm 2 m/s 761 mmHg 92%
01:00 +7°C° 0 mm 2 m/s 761 mmHg 91%
02:00 +7°C° 0 mm 2 m/s 761 mmHg 91%
03:00 +7°C° 0 mm 2 m/s 761 mmHg 90%
04:00 +7°C° 0 mm 2 m/s 761 mmHg 91%
05:00 +6°C° 0 mm 2 m/s 761 mmHg 91%
06:00 +6°C° 0 mm 2 m/s 761 mmHg 92%
07:00 +7°C° 0 mm 2 m/s 761 mmHg 86%
08:00 +9°C° 0 mm 2 m/s 761 mmHg 81%
09:00 +10°C° 0 mm 2 m/s 761 mmHg 76%
10:00 +12°C° 0 mm 2 m/s 761 mmHg 71%
11:00 +13°C° 0 mm 2 m/s 761 mmHg 66%
12:00 +13°C° 0 mm 3 m/s 761 mmHg 60%
13:00 +14°C° 0 mm 2 m/s 761 mmHg 60%
14:00 +13°C° 0 mm 2 m/s 761 mmHg 60%
15:00 +13°C° 0 mm 2 m/s 761 mmHg 59%
16:00 +12°C° 0 mm 2 m/s 761 mmHg 64%
17:00 +10°C° 0 mm 2 m/s 761 mmHg 69%
18:00 +8°C° 0 mm 2 m/s 761 mmHg 74%
19:00 +7°C° 0 mm 2 m/s 761 mmHg 76%
20:00 +7°C° 0 mm 2 m/s 761 mmHg 78%
21:00 +6°C° 0 mm 2 m/s 761 mmHg 80%
22:00 +5°C° 0 mm 2 m/s 761 mmHg 80%
23:00 +5°C° 0 mm 2 m/s 761 mmHg 80%

5 Outubro, Segunda-feira

Tempo Temperatura Precipitação Vento Pressão Humidade
00:00 +6°C° 0 mm 1 m/s 761 mmHg 81%
01:00 +5°C° 0 mm 1 m/s 761 mmHg 81%
02:00 +5°C° 0 mm 1 m/s 761 mmHg 81%
03:00 +5°C° 0 mm 1 m/s 761 mmHg 81%
04:00 +4°C° 0 mm 1 m/s 761 mmHg 82%
05:00 +4°C° 0 mm 1 m/s 761 mmHg 83%
06:00 +4°C° 0 mm 1 m/s 761 mmHg 84%
07:00 +6°C° 0 mm 1 m/s 761 mmHg 78%
08:00 +7°C° 0 mm 1 m/s 761 mmHg 72%
09:00 +9°C° 0 mm 1 m/s 761 mmHg 66%
10:00 +10°C° 0 mm 1 m/s 761 mmHg 63%
11:00 +10°C° 0 mm 0 m/s 761 mmHg 59%
12:00 +11°C° 0 mm 0 m/s 761 mmHg 56%
13:00 +11°C° 0 mm 0 m/s 761 mmHg 55%
14:00 +12°C° 0 mm 1 m/s 760 mmHg 55%
15:00 +12°C° 0 mm 1 m/s 760 mmHg 54%
16:00 +11°C° 0 mm 1 m/s 760 mmHg 60%
17:00 +9°C° 0 mm 1 m/s 759 mmHg 67%
18:00 +8°C° 0 mm 1 m/s 759 mmHg 73%
19:00 +7°C° 0 mm 1 m/s 759 mmHg 75%
20:00 +7°C° 0 mm 1 m/s 759 mmHg 78%
21:00 +6°C° 0 mm 1 m/s 759 mmHg 80%
22:00 +6°C° 0 mm 1 m/s 759 mmHg 82%
23:00 +6°C° 0 mm 1 m/s 759 mmHg 83%
Mostrar mais